Current weather by "City, St" or "zip code"  
 

Current Conditions: Olathe, Johnson County Executive Airport, KS

Fair


54.0 F

Last Updated on Oct 21 2021, 12:53 pm CDT
Humidity: 59%
Wind Speed: NW 8.1 mph
Barometer 30.19 in
Dewpoint: 39.9 F
Visibility: 10.00 mi
Precip: --
Heat Index: NA
Wind Chill: 52 F
Current conditions at:

Olathe, Johnson County Executive Airport, KS (KOJC)

Lat: 38.85 Lon: 94.73917

Local Radar Image active severe weather and emergency alerts image image weather storm and storm spotter reports image weather observation monitoring service image
Local
Radar
Active
Alerts
Storm Reports Obs
Monitoring

Sign-up For Email & Text Message Weather Alert Notification Services



Advertise Here

Observation History for Olathe, Johnson County Executive Airport, KS


Time Wind
(mph)
Vis
(mi)
Weather Precip (in) Temperature (F) Relative
Humidity
Wind
Chill
(F)
Heat
Index
(F)
Pressure
Air Dwpt altimeter
(in)
sea level
(mb)
Rmks
12:53 pm CDT NW 8.1 10.00 Fair -- 54.0 39.9 59% 52 NA 30.19 1022.4
11:53 am CDT NW 10.4 10.00 Fair -- 52.0 39.0 61% 48 NA 30.20 1022.6
10:53 am CDT NW 9.2 G 18.4 10.00 A Few Clouds -- 50.0 37.9 63% 46 NA 30.19 1022.4
9:53 am CDT NW 13.8 10.00 Fair -- 47.0 37.0 69% 41 NA 30.18 1021.9
8:53 am CDT NW 11.5 G 18.4 10.00 Fair -- 45.0 37.0 74% 39 NA 30.17 1021.5
7:53 am CDT NW 8.1 10.00 Fair -- 43.0 36.0 76% 38 NA 30.15 1020.8
6:53 am CDT NW 10.4 10.00 Fair -- 43.0 36.0 76% 37 NA 30.12 1020.0
5:53 am CDT W 10.4 G 18.4 10.00 Fair -- 44.0 37.0 76% 38 NA 30.12 1019.7
4:53 am CDT NW 6.9 10.00 Fair -- 45.0 37.0 74% 41 NA 30.10 1019.0
3:53 am CDT W 5.8 10.00 Fair -- 45.0 37.9 77% 42 NA 30.10 1019.0
2:53 am CDT W 5.8 10.00 Fair -- 47.0 39.0 74% 44 NA 30.09 1018.7
1:53 am CDT W 6.9 10.00 Fair -- 48.0 39.0 71% 45 NA 30.09 1018.7
12:53 am CDT W 5.8 10.00 Fair -- 50.0 39.0 66% 48 NA 30.09 1018.5
11:53 pm CDT W 4.6 10.00 Fair -- 51.0 39.9 66% 50 NA 30.09 1018.5
10:53 pm CDT NW 5.8 10.00 Fair -- 52.0 39.9 64% 50 NA 30.08 1018.3
9:53 pm CDT NW 8.1 10.00 Fair -- 55.0 41.0 59% 53 NA 30.07 1017.9
8:53 pm CDT NW 9.2 10.00 Fair -- 57.0 42.1 58% 55 NA 30.06 1017.5
7:53 pm CDT W 8.1 10.00 Fair -- 59.0 43.0 56% 58 NA 30.04 1016.9
6:53 pm CDT W 3.5 10.00 Fair -- 61.0 43.0 52% NA NA 30.02 1016.0
5:53 pm CDT W 6.9 G 17.3 10.00 Fair -- 65.0 43.0 45% NA NA 30.01 1015.6
4:53 pm CDT W 11.5 10.00 Fair -- 68.0 45.0 44% NA NA 30.00 1015.2
3:53 pm CDT W 10.4 G 19.6 10.00 Fair -- 69.0 50.0 51% NA NA 29.99 1014.9
2:53 pm CDT W 11.5 G 17.3 10.00 Fair -- 68.0 51.1 55% NA NA 30.00 1015.1
1:53 pm CDT W 10.4 10.00 Fair -- 67.0 51.1 57% NA NA 30.00 1015.4

Regional Weather Observation


Kansas City, Kansas City Downtown Airport, MO (KMKC)

Fair
55.0 F

Olathe, New Century Aircenter, KS (KIXD)

Fair
55.0 F

Kansas City, Kansas City International Airport, MO (KMCI)

Partly Cloudy
55.0 F

Olathe, Johnson County Executive Airport, KS (KOJC)

Fair
54.0 F

Lees Summit, Lees Summit Municipal Airport, MO (KLXT)

Fair
55.0 F

Topeka, Philip Billard Municipal Airport, KS (KTOP)

Fair
56.0 F

Advertise Here


Advertise Here